Regional Weather Roundup
Issued by NWS

Home | Current Version | Previous Version | Graphics & Text | Print | Product List | Glossary On
Versions: 1 2 3 4 5 6 7 8 9 10 11 12 13 14 15 16 17 18 19 20 21 22 23 24 25 26 27 28 29 30 31 32 33 34 35 36 37 38 39 40 41 42 43 44 45 46 47 48 49 50
000
ASUS43 KMKX 270911
RWRWI

WISCONSIN REGIONAL WEATHER ROUNDUP
NATIONAL WEATHER SERVICE MILWAUKEE/SULLIVAN WI
400 AM CDT THU APR 27 2017

NOTE: "FAIR" INDICATES FEW OR NO CLOUDS BELOW 12,000 FEET WITH NO
SIGNIFICANT WEATHER AND/OR OBSTRUCTIONS TO VISIBILITY.

WIZ001-002-006>008-014>016-023>028-271000-
NORTHWEST WISCONSIN

CITY           SKY/WX    TMP DP  RH WIND       PRES   REMARKS
SUPERIOR ARPT  CLOUDY    27  25  93 CALM      29.58F FOG
ASHLAND        CLOUDY    28  26  92 N8        29.55S WCI  20
HAYWARD        CLOUDY    28  25  88 N9        29.52S WCI  19
SIREN          CLOUDY    30  27  88 N8        29.54F WCI  22
CUMBERLAND     CLOUDY    30  28  93 N9        29.51S WCI  22
RICE LAKE      CLOUDY    32  29  89 NW6       29.52S WCI  26
CHETEK         CLOUDY    32  29  88 N3        29.50F
LADYSMITH      CLOUDY    31  27  84 N8        29.50S WCI  24
EAU CLAIRE     CLOUDY    34  27  75 N9        29.48F WCI  27
MENOMONIE      CLOUDY    34  29  82 NW9       29.50F WCI  27
NEW RICHMOND   CLOUDY    33  29  85 N8        29.52S WCI  26
OSCEOLA        CLOUDY    33  32  97 N7        29.56F WCI  27
$$

WIZ003>005-009-010-017-018-271000-
NORTH CENTRAL WISCONSIN

CITY           SKY/WX    TMP DP  RH WIND       PRES   REMARKS
MANITOWISH WTR CLOUDY    28  28 100 N9        29.45F WCI  19
ARBOR VITAE    CLOUDY    32  29  90 N7        29.43F WCI  25
WOODRUFF       CLOUDY    32  29  90 N7        29.43F WCI  25
RHINELANDER    MIX PCPN  32  29  88 VRB7      29.42F WCI  26
EAGLE RIVER    FLURRIES  29  28  94 N7        29.42F WCI  22
LAND O LAKES   LGT SNOW  29  27  94 N8        29.45F WCI  21
PHILLIPS       CLOUDY    28  26  92 N8        29.46F WCI  20
TOMAHAWK       CLOUDY    31  28  90 NW6       29.43F WCI  25
MEDFORD        CLOUDY    32  29  91 N10       29.42F WCI  23
MERRILL        DRIZZLE   33  32  95 N8        29.41F WCI  26
$$

WIZ029-030-035-036-043>047-271000-
CENTRAL WISCONSIN

CITY           SKY/WX    TMP DP  RH WIND       PRES   REMARKS
WAUSAU         LGT RAIN  35  34  96 N9        29.39F WCI  28
MOSINEE        LGT RAIN  36  36 100 N9G16     29.41F WCI  29
MARSHFIELD     LGT RAIN  36  33  89 N13       29.40S FOG     WCI  27
STEVENS POINT  DRIZZLE   36  36 100 NW7       29.40S WCI  31
WAUPACA        DRIZZLE   43  41  91 NW7       29.38F
WAUTOMA        RAIN      41  40  96 NW7       29.38F
WISC RAPIDS    LGT RAIN  39  38  96 N9        29.41F WCI  33
CAMP DOUGLAS   LGT RAIN  38  37  95 NW12      29.41F WCI  31
$$

WIZ011>013-019>022-031-037>040-048>050-271000-
NORTHEAST WISCONSIN

CITY           SKY/WX    TMP DP  RH WIND       PRES   REMARKS
ANTIGO         RAIN      34  34 100 N10       29.39F WCI  26
SHAWANO        LGT RAIN  45  42  91 N6        29.39F
OCONTO         CLOUDY    42  41  96 N7        29.37F
STURGEON BAY   RAIN      43  43 100 MISG      29.36F
GREEN BAY      RAIN      49  49 100 NW7       29.35F FOG
MANITOWOC      CLOUDY    51  50  96 NW6       29.34F
APPLETON       RAIN      45  45 100 N8        29.34F
CLINTONVILLE   RAIN      43  43 100 N6        29.38F
OSHKOSH        RAIN      44  42  93 NW7       29.35F FOG
$$

WIZ032>034-041-042-053>061-271000-
SOUTHWEST WISCONSIN

CITY           SKY/WX    TMP DP  RH WIND       PRES   REMARKS
LA CROSSE      CLOUDY    40  35  83 NW14      29.45F WCI  32
SPARTA         LGT RAIN  37  36  96 NW7       29.45S WCI  31
VIROQUA        CLOUDY    37  37  99 NW10      29.42F WCI  30
BOSCOBEL       LGT RAIN  42  39  89 NW5       29.44S
PRAIRIE DU CHI LGT RAIN  40  37  91 NW7       29.46R WCI  35
PLATTEVILLE    CLOUDY    40  40 100 NW8       29.42F
$$

WIZ056-057-062-063-064-067-068-271000-
SOUTH CENTRAL WISCONSIN

CITY           SKY/WX    TMP DP  RH WIND       PRES   REMARKS
REEDSBURG      DRIZZLE   39  39 100 NW5       29.41R
BARABOO/DELLS  LGT RAIN  40  38  96 W3        29.40S
LONE ROCK      RAIN      42  39  89 NW7       29.42S FOG
MINERAL POINT  LGT RAIN  41  41 100 NW7       29.40F
MADISON        RAIN      42  41  96 NW7       29.38R FOG
MIDDLETON      CLOUDY    42  41  94 NW14      29.39R
WATERTOWN      RAIN      45  45 100 NW7       29.34F
MONROE         RAIN      43  41  93 NW13G18   29.37F
JANESVILLE     RAIN      46  46 100 NW12      29.34F
$$

WIZ051-052-058>065-066-070>072-271000-
SOUTHEAST WISCONSIN

CITY           SKY/WX    TMP DP  RH WIND       PRES   REMARKS
MILWAUKEE      RAIN      55  54  96 SE7       29.32F FOG
WAUKESHA       LGT RAIN  46  46 100 N3        29.34S
MILWAUKEE/TIMM RAIN      52  48  87 N3        29.34S
RACINE         LGT RAIN  53  51  93 S13       29.33F VSB 3/4
KENOSHA        LGT RAIN  58  56  93 S12       29.31F
FOND DU LAC    LGT RAIN  45  42  89 NW10      29.34F
SHEBOYGAN      LGT RAIN  50  49  96 N6        29.33F FOG
WEST BEND      RAIN      46  46 100 N5        29.33F
JUNEAU         RAIN      44  43  97 NW7       29.35F
$$

LSZ147-162-271000-
LAKE SUPERIOR

STATION/POSITION TIME  TEMP    WIND        PRES    WAVE
                       AIR SEA DIR/SP/G            HT/PER
                 (UTC) (F)     (DEG/KT/KT) (MB)    (FT/S)
DEVILS ISLAND    0900   27      10/ 11/ 12 1002.0F
SAXON HARBOR     0840   30      30/ 12/ 15 1000.7F
$$

LMZ867-665-643>646-271000-
LAKE MICHIGAN

STATION/POSITION TIME  TEMP    WIND        PRES    WAVE
                       AIR SEA DIR/SP/G            HT/PER
                 (UTC) (F)     (DEG/KT/KT) (MB)    (FT/S)
CHAMBERS ISLAND  0840   40      10/ 11/ 14  994.9F
N MID LAKE BUOY  0850   40 37   30/  6/  8  995.5F   1/ 5
NORTHPORT PIER   0840   40     340/  9/ 10  994.9F
KEWAUNEE LAKESHO 0848   49      30/  7/ 10  993.6F
SHEBOYGAN LAKESH 0900   50     350/  8/  8  992.8F
PORT WASHINGTON  0840   52     340/  4/  7  994.2F
MILWAUKEE LAKESH 0850   49      20/  6/  6   N/A
S MID LAKE BUOY  0750   48 42  100/  8/ 10  994.8F   0
KENOSHA   LAKESH 0900   50     170/ 13/ 15  992.9
$$

TC  - TEMPERATURE IN CELSIUS
VSB - VISIBILITY IN STATUTE MILES
WCI - WIND CHILL INDEX
HX  - HEAT INDEX




USA.gov is the U.S. government's official web portal to all federal, state and local government web resources and services.